SL-12 R/B(2), 13610

Orbit data source: Space-Track

SL-12 R/B(2), 13610 is space debris in MEO originally from a launch on Tue, 12 Oct 1982 UTC launched from the Tyuratam Missile And Space Complex (TTMTR). Debris objects in space refer to the collection of defunct objects orbiting the Earth. Examples of debris include non-operational satellites, rocket bodies, and fragments generated from explosions, collisions, or faulty payload assembly.

Loading next visibility...
Identifier
13610, 1982-100H
Orbit
MEO
Country
Flag of CISCIS
Related business
Manufacturer
NPO Energiya
Mission
Spacecraft
Bus & Motor
BLOK DM, Unknown motor
Mass
2,440 kg wet, 2,440 kg dry
Launch date (UTC)
1982-10-12 (43 years ago)
Launch vehicle
Unknown
Launch site
Tyuratam Missile And Space Complex (TTMTR)
Object type
Payload
Rocket body
Debris
Shape & HBR
Unknown
Radar Cross Section
Large (>1 m²)

Expand to show TLE details & history
Last TLE update: 4 days ago

TLE from 4 days ago
0 SL-12 R/B(2)
1 13610U 82100H   26091.28089374 -.00000010  00000-0  00000-0 0  9993
2 13610  64.8392  68.3929 0007128 217.9185 139.2468  2.14005546340134
Epoch: 2026-04-01T06:44Z
TLE epoch observation values (Epoch: 2026-04-01T06:44:29.219Z)
Latitude
-2.50779°
Longitude
136.42839°
Altitude
19,072.701 km
Speed
3.956 km/s
True Right ascension
04h 28m 47s
True Declination
-2° 30' 13"
Sunlit
Object was in daylight at epoch
Visualization orbit readout
Latitude
Unknown
Longitude
Unknown
Altitude
Unknown
Speed
Unknown
Apparent Right ascension
Unknown
Apparent Declination
Unknown
Sunlit
N/A
Visualization observer readout
Local Sidereal Time
23:41:17
Azimuth
Unknown
Elevation
Unknown
Doppler factor
Unknown
Orbital elements
Apogee altitude
19,075.789 km
Perigee altitude
19,039.528 km
Semi-major axis
25,435.795 km
Eccentricity
0.00071
Inclination
64.8392°
RAAN
68.3929°
Arg. of periapsis
217.9185°
True anomaly
139.30009°
Mean anomaly
139.2468°
Eccentric anomaly
139.27345°
Mean motion
0.53503 °/min
Orbital period
672.86 mins
BSTAR
0
Loading maneuver chart data...
Computing Atmospheric mass density...
Loading historical data...
Loading historical data...
Loading historical data...
Loading historical data...
Loading historical data...
Loading historical data...
Loading historical data...

Documentation

Showing up to 5 results
|